• In Hungary
  • List of Countries
  • For 7 days
  • Water Temperature
  • Satellite Maps
  • Weather Map
  • News
  • Weather Widgets
  • user-avatar
    Login

    Hourly Weather Tibissa

    Today, 23 October, Tuesday

    Time Temperature Precipitation Wind Pressure Humidity
    00:00 +12°C° 0 mm 9 mps 686 mmHg 75%
    01:00 +11°C° 0 mm 8 mps 685 mmHg 75%
    02:00 +11°C° 0 mm 9 mps 685 mmHg 76%
    03:00 +11°C° 0 mm 10 mps 685 mmHg 76%
    04:00 +9°C° 0 mm 11 mps 685 mmHg 77%
    05:00 +9°C° 0 mm 11 mps 686 mmHg 77%
    06:00 +9°C° 0 mm 11 mps 686 mmHg 78%
    07:00 +9°C° 0 mm 11 mps 686 mmHg 79%
    08:00 +11°C° 0.1 mm 11 mps 686 mmHg 75%
    09:00 +12°C° 0.1 mm 11 mps 687 mmHg 72%
    10:00 +12°C° 0.1 mm 11 mps 687 mmHg 69%
    11:00 +13°C° 0 mm 11 mps 687 mmHg 66%
    12:00 +14°C° 0 mm 11 mps 687 mmHg 64%
    13:00 +14°C° 0 mm 11 mps 688 mmHg 61%
    14:00 +14°C° 0 mm 11 mps 687 mmHg 62%
    15:00 +14°C° 0 mm 11 mps 687 mmHg 62%
    16:00 +14°C° 0 mm 11 mps 687 mmHg 62%
    17:00 +13°C° 0 mm 10 mps 687 mmHg 66%
    18:00 +13°C° 0 mm 10 mps 687 mmHg 70%
    19:00 +12°C° 0 mm 10 mps 687 mmHg 74%
    20:00 +12°C° 0 mm 9 mps 688 mmHg 76%
    21:00 +11°C° 0 mm 8 mps 688 mmHg 78%
    22:00 +11°C° 0 mm 8 mps 688 mmHg 80%
    23:00 +11°C° 0 mm 7 mps 688 mmHg 81%

    Tomorrow, 24 October, Wednesday

    Time Temperature Precipitation Wind Pressure Humidity
    00:00 +11°C° 0 mm 7 mps 688 mmHg 82%
    01:00 +11°C° 0 mm 6 mps 687 mmHg 82%
    02:00 +10°C° 0 mm 7 mps 687 mmHg 83%
    03:00 +10°C° 0 mm 7 mps 687 mmHg 83%
    04:00 +10°C° 0 mm 7 mps 687 mmHg 83%
    05:00 +10°C° 0 mm 7 mps 687 mmHg 83%
    06:00 +10°C° 0 mm 7 mps 687 mmHg 83%
    07:00 +10°C° 0 mm 7 mps 687 mmHg 84%
    08:00 +11°C° 0 mm 7 mps 687 mmHg 79%
    09:00 +12°C° 0 mm 7 mps 688 mmHg 75%
    10:00 +13°C° 0 mm 8 mps 688 mmHg 70%
    11:00 +15°C° 0 mm 8 mps 688 mmHg 67%
    12:00 +15°C° 0 mm 7 mps 688 mmHg 64%
    13:00 +16°C° 0 mm 7 mps 688 mmHg 61%
    14:00 +16°C° 0 mm 7 mps 688 mmHg 60%
    15:00 +16°C° 0 mm 7 mps 687 mmHg 60%
    16:00 +16°C° 0 mm 7 mps 687 mmHg 59%
    17:00 +15°C° 0 mm 7 mps 687 mmHg 64%
    18:00 +14°C° 0 mm 6 mps 687 mmHg 69%
    19:00 +14°C° 0 mm 5 mps 687 mmHg 73%
    20:00 +13°C° 0 mm 4 mps 687 mmHg 77%
    21:00 +13°C° 0 mm 3 mps 687 mmHg 80%
    22:00 +12°C° 0 mm 3 mps 688 mmHg 83%
    23:00 +13°C° 0 mm 2 mps 687 mmHg 84%

    Day after tomorrow, 25 October, Thursday

    Time Temperature Precipitation Wind Pressure Humidity
    00:00 +12°C° 0 mm 2 mps 687 mmHg 86%
    01:00 +12°C° 0 mm 2 mps 687 mmHg 87%
    02:00 +12°C° 0 mm 2 mps 687 mmHg 87%
    03:00 +12°C° 0 mm 2 mps 687 mmHg 87%
    04:00 +12°C° 0 mm 2 mps 687 mmHg 87%
    05:00 +10°C° 0 mm 2 mps 687 mmHg 87%
    06:00 +11°C° 0 mm 1 mps 687 mmHg 87%
    07:00 +11°C° 0 mm 1 mps 687 mmHg 87%
    08:00 +13°C° 0 mm 1 mps 688 mmHg 79%
    09:00 +14°C° 0 mm 1 mps 688 mmHg 71%
    10:00 +15°C° 0 mm 1 mps 689 mmHg 63%
    11:00 +16°C° 0 mm 1 mps 689 mmHg 58%
    12:00 +18°C° 0 mm 1 mps 689 mmHg 53%
    13:00 +17°C° 0 mm 0 mps 689 mmHg 48%
    14:00 +20°C° 0 mm 1 mps 689 mmHg 46%
    15:00 +20°C° 0 mm 1 mps 689 mmHg 44%
    16:00 +20°C° 0 mm 1 mps 688 mmHg 42%
    17:00 +20°C° 0 mm 1 mps 688 mmHg 45%
    18:00 +19°C° 0 mm 1 mps 688 mmHg 49%
    19:00 +17°C° 0 mm 2 mps 688 mmHg 52%
    20:00 +17°C° 0 mm 2 mps 688 mmHg 54%
    21:00 +16°C° 0 mm 2 mps 688 mmHg 55%
    22:00 +16°C° 0 mm 2 mps 689 mmHg 57%
    23:00 +15°C° 0 mm 2 mps 688 mmHg 59%

    26 October, Friday

    Time Temperature Precipitation Wind Pressure Humidity
    00:00 +15°C° 0 mm 2 mps 688 mmHg 60%
    01:00 +15°C° 0 mm 2 mps 688 mmHg 62%
    02:00 +14°C° 0 mm 2 mps 688 mmHg 63%
    03:00 +14°C° 0 mm 2 mps 687 mmHg 64%
    04:00 +14°C° 0 mm 2 mps 687 mmHg 65%
    05:00 +13°C° 0 mm 2 mps 687 mmHg 66%
    06:00 +13°C° 0 mm 2 mps 687 mmHg 66%
    07:00 +13°C° 0 mm 2 mps 687 mmHg 66%
    08:00 +13°C° 0 mm 3 mps 687 mmHg 59%
    09:00 +16°C° 0 mm 3 mps 688 mmHg 51%
    10:00 +18°C° 0 mm 4 mps 688 mmHg 44%
    11:00 +19°C° 0 mm 4 mps 688 mmHg 40%
    12:00 +20°C° 0 mm 5 mps 688 mmHg 37%
    13:00 +21°C° 0 mm 5 mps 688 mmHg 34%
    14:00 +21°C° 0 mm 6 mps 687 mmHg 35%
    15:00 +20°C° 0 mm 6 mps 687 mmHg 36%
    16:00 +20°C° 0 mm 6 mps 687 mmHg 37%
    17:00 +19°C° 0 mm 5 mps 686 mmHg 42%
    18:00 +17°C° 0 mm 5 mps 686 mmHg 46%
    19:00 +17°C° 0 mm 4 mps 686 mmHg 51%
    20:00 +15°C° 0 mm 4 mps 686 mmHg 53%
    21:00 +15°C° 0 mm 4 mps 686 mmHg 56%
    22:00 +14°C° 0 mm 3 mps 686 mmHg 58%
    23:00 +14°C° 0 mm 3 mps 686 mmHg 60%

    27 October, Saturday

    Time Temperature Precipitation Wind Pressure Humidity
    00:00 +13°C° 0 mm 4 mps 686 mmHg 61%
    01:00 +13°C° 0 mm 4 mps 685 mmHg 62%
    02:00 +13°C° 0 mm 4 mps 685 mmHg 62%
    03:00 +13°C° 0 mm 4 mps 685 mmHg 61%
    04:00 +13°C° 0 mm 4 mps 684 mmHg 61%
    05:00 +12°C° 0 mm 4 mps 684 mmHg 61%
    06:00 +12°C° 0 mm 4 mps 684 mmHg 62%
    07:00 +12°C° 0 mm 4 mps 684 mmHg 63%
    08:00 +14°C° 0 mm 5 mps 685 mmHg 59%
    09:00 +16°C° 0 mm 7 mps 685 mmHg 55%
    10:00 +18°C° 0 mm 8 mps 685 mmHg 51%
    11:00 +20°C° 0 mm 8 mps 685 mmHg 49%
    12:00 +19°C° 0 mm 9 mps 685 mmHg 47%
    13:00 +21°C° 0 mm 9 mps 684 mmHg 45%
    14:00 +21°C° 0 mm 9 mps 684 mmHg 45%
    15:00 +21°C° 0 mm 8 mps 683 mmHg 46%
    16:00 +21°C° 0 mm 8 mps 683 mmHg 46%
    17:00 +20°C° 0 mm 7 mps 682 mmHg 50%
    18:00 +19°C° 0 mm 6 mps 682 mmHg 54%
    19:00 +17°C° 0 mm 5 mps 682 mmHg 58%
    20:00 +17°C° 0 mm 5 mps 682 mmHg 59%
    21:00 +16°C° 0 mm 6 mps 682 mmHg 60%
    22:00 +16°C° 0 mm 6 mps 681 mmHg 62%
    23:00 +16°C° 0.1 mm 6 mps 681 mmHg 61%

    28 October, Sunday

    Time Temperature Precipitation Wind Pressure Humidity
    00:00 +16°C° 0.1 mm 7 mps 680 mmHg 60%
    01:00 +16°C° 0.1 mm 7 mps 680 mmHg 60%
    02:00 +16°C° 0 mm 7 mps 679 mmHg 61%
    03:00 +16°C° 0 mm 7 mps 679 mmHg 61%
    04:00 +16°C° 0 mm 7 mps 678 mmHg 62%
    05:00 +16°C° 0 mm 7 mps 678 mmHg 65%
    06:00 +15°C° 0 mm 6 mps 677 mmHg 67%
    07:00 +15°C° 0 mm 6 mps 677 mmHg 69%
    08:00 +15°C° 0 mm 7 mps 677 mmHg 67%
    09:00 +16°C° 0 mm 9 mps 677 mmHg 64%
    10:00 +17°C° 0 mm 11 mps 677 mmHg 62%
    11:00 +17°C° 0 mm 12 mps 676 mmHg 59%
    12:00 +18°C° 0 mm 12 mps 676 mmHg 56%
    13:00 +18°C° 0 mm 13 mps 675 mmHg 53%
    14:00 +18°C° 0.1 mm 13 mps 675 mmHg 52%
    15:00 +18°C° 0.1 mm 12 mps 675 mmHg 51%
    16:00 +18°C° 0.1 mm 12 mps 675 mmHg 50%
    17:00 +17°C° 0.5 mm 11 mps 675 mmHg 55%
    18:00 +14°C° 0.5 mm 10 mps 675 mmHg 59%
    19:00 +13°C° 0.5 mm 9 mps 676 mmHg 64%
    20:00 +12°C° 0.1 mm 7 mps 676 mmHg 66%
    21:00 +13°C° 0.1 mm 6 mps 676 mmHg 67%
    22:00 +12°C° 0.1 mm 5 mps 676 mmHg 69%
    23:00 +10°C° 0 mm 6 mps 676 mmHg 66%

    29 October, Monday

    Time Temperature Precipitation Wind Pressure Humidity
    00:00 +10°C° 0 mm 6 mps 676 mmHg 63%
    01:00 +9°C° 0 mm 7 mps 676 mmHg 59%
    02:00 +8°C° 0 mm 6 mps 676 mmHg 63%
    03:00 +7°C° 0 mm 5 mps 676 mmHg 67%
    04:00 +6°C° 0 mm 5 mps 676 mmHg 71%
    05:00 +6°C° 0 mm 4 mps 677 mmHg 70%
    06:00 +5°C° 0 mm 4 mps 677 mmHg 69%
    07:00 +5°C° 0 mm 3 mps 677 mmHg 68%
    08:00 +6°C° 0 mm 5 mps 677 mmHg 61%
    09:00 +5°C° 0 mm 6 mps 678 mmHg 55%
    10:00 +6°C° 0 mm 7 mps 678 mmHg 48%
    11:00 +7°C° 0 mm 8 mps 678 mmHg 44%
    12:00 +7°C° 0 mm 8 mps 678 mmHg 39%
    13:00 +8°C° 0 mm 9 mps 678 mmHg 35%
    14:00 +8°C° 0 mm 9 mps 678 mmHg 35%
    15:00 +8°C° 0 mm 9 mps 678 mmHg 35%
    16:00 +8°C° 0 mm 9 mps 678 mmHg 34%
    17:00 +7°C° 0 mm 9 mps 679 mmHg 37%
    18:00 +6°C° 0 mm 8 mps 679 mmHg 40%
    19:00 +6°C° 0 mm 8 mps 679 mmHg 43%
    20:00 +5°C° 0 mm 8 mps 680 mmHg 45%
    21:00 +5°C° 0 mm 8 mps 680 mmHg 48%
    22:00 +5°C° 0 mm 8 mps 680 mmHg 50%
    23:00 +5°C° 0 mm 7 mps 680 mmHg 52%
    Show more